[[[{"header":{"parameterUnit":"kt","parameterCategory":2,"dx":1,"dy":1,"la1":30.253999710083008,"la2":30.299108505249023,"lo1":-89.0895004272461,"lo2":-89.04439544677734,"nx":28,"ny":28,"refTime":"2022-10-05T21:00:00:Z","depth":0,"parameterNumber":1,"parameterNumberName":"U-component_of_WINDS"},"data":[3.2444,3.2615,3.2622,3.2822,3.2861,3.3001,3.3053,3.3122,3.3178,3.3347,3.3446,3.3472,3.3534,3.3657,3.3766,3.3776,3.3824,3.388,3.3883,3.3621,3.3586,3.3552,3.3512,3.3889,3.389,3.4154,3.4156,3.4158,3.2255,3.2295,3.2402,3.251,3.2602,3.2552,3.2635,3.2717,3.2843,3.2914,3.3011,3.3161,3.3282,3.3325,3.3443,3.3527,3.3513,3.3559,3.3555,3.3567,3.3286,3.3243,3.357,3.357,3.3569,3.3569,3.3569,3.3569,3.1913,3.2015,3.2083,3.2199,3.2255,3.2328,3.2428,3.2455,3.2562,3.2682,3.267,3.2814,3.2889,3.3034,3.3085,3.32,3.315,3.3205,3.3219,3.3234,3.3251,3.2874,3.322,3.3219,3.3218,3.3217,3.3217,0,3.1666,3.1664,3.1765,3.187,3.1954,3.2037,3.2113,3.2175,3.2174,3.2263,3.2391,3.2467,3.2618,3.2742,3.2853,3.2896,3.2857,3.2852,3.2891,3.2901,3.2896,3.2905,3.2451,3.2843,3.284,3.2837,3.2836,3.2834,3.1325,3.1441,3.1515,3.1586,3.1628,3.1743,3.1813,3.1803,3.1879,3.1973,3.2066,3.2188,3.2285,3.2493,3.2527,3.2641,3.2624,3.2773,3.2641,3.2646,3.2632,3.2627,3.264,3.2801,3.2805,3.2808,3.2811,0,3.1133,3.1141,3.1324,3.1384,3.1403,3.1528,3.1581,3.1684,3.1699,3.1843,3.1876,3.1902,3.203,3.2039,3.2187,3.2189,3.2402,3.2379,3.2377,3.2374,3.2512,3.2501,3.2949,3.3009,3.2613,3.2617,3.262,0,3.0848,3.1001,3.1004,3.111,3.1281,3.1265,3.1437,3.1466,3.1527,3.164,3.1593,3.1701,3.1695,3.1806,3.1808,3.1983,3.2009,3.2023,3.2023,3.2029,3.2028,3.2074,3.2057,3.2011,3.2009,3.2007,3.2005,0,3.055,3.0729,3.09,3.0943,3.1023,3.1105,3.1143,3.1209,3.1279,3.137,3.1416,3.1523,3.1584,3.167,3.1672,3.1583,3.1884,3.1762,3.1899,3.1899,3.1968,3.1965,3.2355,3.2002,3.2002,3.2001,3.2,0,3.0321,3.0409,3.0654,3.072,3.0768,3.0881,3.0985,3.1083,3.1157,3.1165,3.1237,3.1208,3.1357,3.1235,3.1443,3.1326,3.139,3.1415,3.1424,3.1442,3.1307,3.1532,3.1899,3.194,3.1454,3.145,3.1446,0,2.998,3.0228,3.0215,3.0449,3.0565,3.0504,3.0629,3.0695,3.0715,3.0819,3.0841,3.096,3.0871,3.091,3.101,3.1041,3.1193,3.102,3.1178,3.1184,3.1163,3.15,3.1555,3.1816,3.1387,3.1394,3.1398,0,2.9717,2.9809,2.9852,2.99,2.9982,3.0078,3.0221,3.0333,3.0403,3.0481,3.0604,3.0768,3.0709,3.0773,3.0761,3.0866,3.109,3.0789,3.079,3.0846,3.1357,3.1408,3.1452,3.1059,3.1066,3.1071,3.1352,0,2.9377,2.95,2.9613,2.9719,2.9793,2.9938,2.9944,3.0022,3.0001,3.0019,3.0197,3.0254,3.0371,3.0421,3.0402,3.0637,3.06,3.0535,3.0421,3.064,3.0733,3.0771,3.0282,3.0278,3.0276,3.0273,0,0,2.9052,2.9227,2.9208,2.9344,2.9406,2.9339,2.9495,2.9548,2.9658,2.9704,2.9638,2.988,2.993,3.0147,3.0215,3.0261,3.0306,3.0228,3.0535,3.0564,3.0591,3.069,3.0729,3.0268,3.0267,3.0266,3.0265,0,2.8929,2.8973,2.9124,2.9177,2.9255,2.9264,2.9301,2.9367,2.9386,2.9558,2.9504,2.9612,2.9804,2.9865,2.9921,3.0201,3.0157,3.0236,3.0386,3.0506,3.0539,3.0568,3.0672,3.0709,3.0258,3.0259,3.0259,0,2.8674,2.872,2.8792,2.8926,2.8976,2.9096,2.8976,2.9107,2.9197,2.912,2.9293,2.9326,2.9407,2.9609,2.97,2.9644,3.0021,2.9902,2.992,2.9931,3.0048,3.0088,3.0123,2.9661,2.9659,2.9657,0,0,2.8567,2.8679,2.8726,2.89,2.8935,2.8951,2.9015,2.9,2.9071,2.91,2.914,2.9214,2.9326,2.94,2.9506,2.9726,2.9744,2.9828,2.9856,2.9879,2.9903,3.0026,3.0065,2.9649,2.9649,2.9649,0,0,2.8517,2.8576,2.8541,2.8743,2.881,2.887,2.8978,2.8937,2.9031,2.9016,2.9,2.9019,2.9207,2.9242,2.9134,2.9466,2.9352,2.9378,2.9437,2.9472,2.95,2.949,2.9022,0,0,0,0,0,2.8393,2.8568,2.8536,2.857,2.874,2.8887,2.8909,2.8898,2.8817,2.8903,2.8931,2.8877,2.9181,2.9085,2.9121,2.9243,2.9546,2.9565,2.9582,2.971,2.9747,2.9779,0,0,0,0,0,0,2.8406,2.8448,2.8531,2.8598,2.8636,2.8881,2.8742,2.8744,2.8808,2.8795,2.8874,2.888,2.8875,2.9066,2.9099,2.9215,2.9011,2.9554,2.9569,2.9583,2.9723,2.9753,2.9779,0,0,0,0,0,2.8417,2.845,2.8724,2.8595,2.8628,2.8655,2.8735,2.8736,2.8786,2.8829,2.8833,2.8771,2.8879,2.8906,2.9085,2.92,2.8988,2.9,2.9564,2.9576,2.9587,2.9738,0,0,0,0,0,0,2.8425,2.8453,2.8731,2.8741,2.8527,2.8641,2.8659,2.8729,2.8815,2.8821,2.8725,2.8713,2.8884,2.8903,2.8925,2.9196,2.8969,2.8982,2.899,2.9573,2.9582,2.9591,0,0,0,0,0,0,2.8435,2.8462,2.8736,2.8651,2.865,2.8629,2.8644,2.8795,2.8817,2.8706,2.8699,2.8719,2.8853,2.8903,2.8919,2.9155,2.8955,2.8967,2.8975,2.8981,2.9581,2.9588,0,0,0,0,0,0,2.8446,2.8469,2.8648,2.8648,2.8647,2.8757,2.8762,2.8938,2.874,2.8703,2.8722,2.8714,2.8854,2.887,2.8916,2.9145,2.9153,2.8956,2.8964,2.897,2.8973,0,0,0,0,0,0,0,2.8455,2.8302,2.8672,2.8646,2.8645,2.8831,2.8834,2.8837,2.8738,2.8731,2.8724,2.8718,2.8887,2.89,2.8913,2.9137,0,0,2.8954,2.896,0,0,0,0,0,0,0,0,2.8292,2.83,2.8673,2.8675,2.8677,2.8832,2.8834,2.8836,2.8737,2.8731,2.8726,2.872,2.8891,2.8901,2.8912,0,0,0,0,0,0,0,0,0,0,0,0,0,0,0,2.8673,2.8675,0,2.8832,2.8834,2.8836,2.8736,2.8732,2.8727,2.8722,2.8894,2.8902,2.8911,0,0,0,0,0,0,0,0,0,0,0,0,0,0,0,0,0,0,0,0,0,0,0,0,0,0,0,0,0,0,0,0,0,0,0,0,0,0,0,0,0,0,0,0,0,0,0,0,0,0,0,0,0,0,0,0,0,0,0,0,0,0,0,0,0,0,0,0,0]}],[{"header":{"parameterUnit":"kt","parameterCategory":2,"dx":1,"dy":1,"la1":30.253999710083008,"la2":30.299108505249023,"lo1":-89.0895004272461,"lo2":-89.04439544677734,"nx":28,"ny":28,"refTime":"2022-10-05T21:00:00:Z","depth":0,"parameterNumber":2,"parameterNumberName":"V-component_of_WINDS"},"data":[-2.2498,-2.2504,-2.2509,-2.2517,-2.2522,-2.2528,-2.2532,-2.2537,-2.2542,-2.255,-2.2555,-2.256,-2.2566,-2.2573,-2.2579,-2.2581,-2.2583,-2.2581,-2.2584,-2.2586,-2.2587,-2.2587,-2.2586,-2.2582,-2.2582,-2.2581,-2.2581,-2.2581,-2.2499,-2.2504,-2.251,-2.2518,-2.2523,-2.2527,-2.2534,-2.2538,-2.2543,-2.255,-2.2555,-2.2562,-2.2568,-2.2576,-2.2582,-2.2584,-2.2587,-2.2586,-2.2586,-2.2587,-2.2589,-2.2588,-2.2584,-2.2584,-2.2584,-2.2584,-2.2584,-2.2584,-2.25,-2.2504,-2.2512,-2.2518,-2.2524,-2.2529,-2.2533,-2.2539,-2.2545,-2.2552,-2.2556,-2.2563,-2.257,-2.258,-2.2584,-2.2589,-2.2591,-2.2591,-2.2591,-2.2591,-2.2591,-2.2591,-2.259,-2.2591,-2.2591,-2.2591,-2.2591,0,-2.2503,-2.2506,-2.2513,-2.252,-2.2525,-2.2531,-2.2537,-2.254,-2.2549,-2.2553,-2.2559,-2.2564,-2.2572,-2.2579,-2.2586,-2.2591,-2.2595,-2.2596,-2.2596,-2.2594,-2.2592,-2.2593,-2.2596,-2.2596,-2.2596,-2.2596,-2.2596,-2.2596,-2.2505,-2.2508,-2.2519,-2.2523,-2.2527,-2.2533,-2.2538,-2.2545,-2.2549,-2.2558,-2.2561,-2.2567,-2.2573,-2.2583,-2.2589,-2.2596,-2.2598,-2.2597,-2.2599,-2.2597,-2.2598,-2.2597,-2.2598,-2.2597,-2.2597,-2.2597,-2.2597,0,-2.2505,-2.2513,-2.252,-2.253,-2.2533,-2.2536,-2.2545,-2.2549,-2.2554,-2.256,-2.2562,-2.257,-2.2577,-2.2584,-2.2592,-2.2596,-2.26,-2.2602,-2.2598,-2.2599,-2.2599,-2.2598,-2.2598,-2.2598,-2.2603,-2.2602,-2.2602,0,-2.251,-2.2514,-2.2525,-2.2529,-2.2534,-2.2542,-2.2547,-2.2552,-2.2559,-2.2564,-2.257,-2.2574,-2.2583,-2.2588,-2.2593,-2.2598,-2.26,-2.2603,-2.2604,-2.2602,-2.2602,-2.2604,-2.2605,-2.2607,-2.2607,-2.2607,-2.2607,0,-2.2509,-2.2521,-2.2527,-2.2531,-2.2543,-2.2546,-2.2551,-2.2558,-2.2563,-2.2569,-2.2572,-2.2579,-2.2583,-2.2588,-2.2595,-2.2596,-2.2601,-2.2604,-2.2604,-2.2604,-2.2605,-2.2605,-2.2602,-2.2607,-2.2607,-2.2607,-2.2607,0,-2.2514,-2.2522,-2.253,-2.254,-2.2542,-2.2547,-2.2554,-2.256,-2.2567,-2.2571,-2.2576,-2.2581,-2.2587,-2.2589,-2.2596,-2.2595,-2.2599,-2.2602,-2.2602,-2.2603,-2.2605,-2.2603,-2.26,-2.2599,-2.2604,-2.2604,-2.2604,0,-2.2512,-2.2523,-2.253,-2.2537,-2.2543,-2.255,-2.2555,-2.2562,-2.2567,-2.2573,-2.2579,-2.2585,-2.2588,-2.2591,-2.2593,-2.26,-2.2601,-2.26,-2.2607,-2.2607,-2.2605,-2.2602,-2.26,-2.2599,-2.2603,-2.2603,-2.2603,0,-2.2511,-2.2526,-2.2527,-2.2532,-2.2543,-2.2548,-2.2554,-2.2562,-2.2565,-2.2572,-2.2577,-2.2586,-2.2588,-2.2593,-2.2598,-2.2601,-2.26,-2.2603,-2.2603,-2.2602,-2.2604,-2.2602,-2.2602,-2.2603,-2.2603,-2.2603,-2.2603,0,-2.2516,-2.2523,-2.2526,-2.2537,-2.2542,-2.2548,-2.2556,-2.256,-2.2565,-2.2571,-2.2578,-2.2586,-2.2594,-2.2596,-2.26,-2.2604,-2.2604,-2.2607,-2.261,-2.2608,-2.2608,-2.2608,-2.2608,-2.2609,-2.2609,-2.2609,0,0,-2.2512,-2.2522,-2.253,-2.2537,-2.2541,-2.2549,-2.2554,-2.256,-2.2571,-2.2574,-2.2575,-2.2589,-2.2595,-2.2603,-2.2603,-2.2606,-2.2608,-2.2608,-2.2609,-2.2608,-2.2608,-2.2609,-2.2609,-2.2609,-2.2609,-2.2609,-2.2609,0,-2.2516,-2.2523,-2.2529,-2.2535,-2.2545,-2.2551,-2.2552,-2.2563,-2.2567,-2.2574,-2.258,-2.2585,-2.2596,-2.2602,-2.2607,-2.2607,-2.2611,-2.2609,-2.2607,-2.2609,-2.2609,-2.2609,-2.2609,-2.2609,-2.2609,-2.2609,-2.2609,0,-2.2517,-2.2525,-2.2529,-2.2541,-2.2548,-2.2554,-2.2559,-2.2565,-2.257,-2.2577,-2.2584,-2.259,-2.2599,-2.2605,-2.2608,-2.2609,-2.2614,-2.2614,-2.2614,-2.2615,-2.2618,-2.2617,-2.2617,-2.262,-2.262,-2.262,0,0,-2.2519,-2.2526,-2.2537,-2.2543,-2.2546,-2.2556,-2.256,-2.2565,-2.2574,-2.2577,-2.2584,-2.2591,-2.2598,-2.2602,-2.2608,-2.2614,-2.2616,-2.2615,-2.2615,-2.2614,-2.2615,-2.2618,-2.2617,-2.262,-2.262,-2.262,0,0,-2.252,-2.2534,-2.2538,-2.2545,-2.2553,-2.2564,-2.2567,-2.2572,-2.2579,-2.2579,-2.2588,-2.259,-2.2596,-2.2601,-2.26,-2.2609,-2.2612,-2.2612,-2.2606,-2.2605,-2.2605,-2.2603,-2.2606,0,0,0,0,0,-2.2529,-2.2532,-2.2535,-2.2538,-2.2554,-2.2563,-2.2565,-2.2572,-2.2574,-2.2576,-2.2583,-2.2587,-2.2602,-2.2602,-2.2604,-2.2605,-2.262,-2.262,-2.262,-2.2613,-2.2613,-2.2612,0,0,0,0,0,0,-2.253,-2.2533,-2.2535,-2.2547,-2.2551,-2.2563,-2.2567,-2.2569,-2.2574,-2.2575,-2.2585,-2.2587,-2.2594,-2.2601,-2.2603,-2.2604,-2.2606,-2.262,-2.262,-2.262,-2.2613,-2.2613,-2.2612,0,0,0,0,0,-2.2531,-2.2533,-2.2557,-2.2547,-2.255,-2.2561,-2.2567,-2.2569,-2.2572,-2.2583,-2.2585,-2.2578,-2.2594,-2.2596,-2.2602,-2.2603,-2.2604,-2.2605,-2.262,-2.262,-2.262,-2.2613,0,0,0,0,0,0,-2.2531,-2.2535,-2.2558,-2.2559,-2.2547,-2.2561,-2.2563,-2.2568,-2.2581,-2.2583,-2.2576,-2.2576,-2.2593,-2.2595,-2.2597,-2.2602,-2.2603,-2.2604,-2.2605,-2.262,-2.262,-2.262,0,0,0,0,0,0,-2.2534,-2.2536,-2.2558,-2.2557,-2.2558,-2.256,-2.2562,-2.2569,-2.2581,-2.2573,-2.2574,-2.2576,-2.2591,-2.2595,-2.2596,-2.2606,-2.2603,-2.2603,-2.2604,-2.2604,-2.262,-2.262,0,0,0,0,0,0,-2.2535,-2.2537,-2.2557,-2.2558,-2.2559,-2.2573,-2.2566,-2.2582,-2.258,-2.2572,-2.2581,-2.2581,-2.259,-2.2592,-2.2595,-2.2605,-2.2606,-2.2603,-2.2603,-2.2603,-2.2604,0,0,0,0,0,0,0,-2.2536,-2.252,-2.255,-2.2558,-2.2559,-2.257,-2.257,-2.2571,-2.2581,-2.2581,-2.2581,-2.2581,-2.2599,-2.26,-2.26,-2.2604,0,0,-2.2603,-2.2603,0,0,0,0,0,0,0,0,-2.252,-2.252,-2.255,-2.2551,-2.2551,-2.257,-2.257,-2.2571,-2.2581,-2.2581,-2.2581,-2.2581,-2.2599,-2.26,-2.26,0,0,0,0,0,0,0,0,0,0,0,0,0,0,0,-2.255,-2.2551,0,-2.257,-2.257,-2.257,-2.2581,-2.2581,-2.2581,-2.2581,-2.2599,-2.26,-2.26,0,0,0,0,0,0,0,0,0,0,0,0,0,0,0,0,0,0,0,0,0,0,0,0,0,0,0,0,0,0,0,0,0,0,0,0,0,0,0,0,0,0,0,0,0,0,0,0,0,0,0,0,0,0,0,0,0,0,0,0,0,0,0,0,0,0,0,0,0]}]]]